Weather History for McComb, MS

Change the Weather History Date:

Monday, October 31, 2011

  Actual Average Record
Temperature  
Mean Temperature 56 °F -  
Max Temperature 73 °F 74 °F 87 °F (1984)
Min Temperature 39 °F 52 °F 27 °F (1993)
Degree Days  
Heating Degree Days 9    
Growing Degree Days 6 (Base 50)    
Moisture  
Dew Point 40 °F    
Average Humidity 64    
Maximum Humidity 97    
Minimum Humidity 26    
Precipitation  
Precipitation 0.00 in - - ()
Sea Level Pressure  
Sea Level Pressure 30.19 in    
Wind  
Wind Speed 2 mph (North)    
Max Wind Speed 8 mph    
Max Gust Speed -    
Visibility 10 miles    
Events      
Averages and records for this station are not official NWS values.
T = Trace of Precipitation, MM = Missing Value Source: NWS Daily Summary

Daily Weather History Graph

Daily Weather History Graph

Search for Another Location

Airport:

Trip Planner

Search our weather history database for the weather conditions in past years. The results will help you decide how hot, cold, wet, or windy it might be!

Date:

Astronomy

Oct. 31, 2011 Rise Set
Actual Time 7:16 AM CDT 6:14 PM CDT
Civil Twilight 6:51 AM CDT 6:39 PM CDT
Nautical Twilight 6:22 AM CDT 7:07 PM CDT
Astronomical Twilight 5:54 AM CDT 7:36 PM CDT
Moon 12:15 PM CDT (10/31) 10:57 PM CDT (10/31)
Length of Visible Light 11h 47m
Length of Day
10h 57m
Waxing Crescent, 30% of the Moon is Illuminated
Oct 31
Waxing Crescent
Nov 2
First Quarter
Nov 10
Full
Nov 18
Last Quarter
Nov 25
New

Hourly Weather History & Observations

Time (CDT) Temp. Dew Point Humidity Pressure Visibility Wind Dir Wind Speed Gust Speed Precip Events Conditions
12:53 AM 43.0 °F 41.0 °F 93% 30.20 in - Calm Calm - N/A   Clear
1:53 AM 43.0 °F 41.0 °F 93% 30.20 in - Calm Calm - N/A   Clear
2:53 AM 42.1 °F 39.9 °F 92% 30.20 in - Calm Calm - N/A   Clear
3:53 AM 39.9 °F 37.9 °F 93% 30.19 in - Calm Calm - N/A   Clear
4:53 AM 39.9 °F 39.0 °F 97% 30.19 in - Calm Calm - N/A   Clear
6:53 AM 39.0 °F 37.0 °F 93% 30.20 in - Calm Calm - N/A   Clear
7:53 AM 41.0 °F 39.0 °F 93% 30.21 in - Calm Calm - N/A   Clear
8:53 AM 48.9 °F 46.9 °F 93% 30.23 in - Calm Calm - N/A   Clear
9:53 AM 57.9 °F 48.0 °F 70% 30.23 in - Calm Calm - N/A   Clear
10:53 AM 64.9 °F 37.9 °F 37% 30.22 in 10.0 mi NW 6.9 mph - N/A   Clear
11:53 AM 68.0 °F 36.0 °F 31% 30.21 in 10.0 mi Variable 5.8 mph - N/A   Clear
12:53 PM 70.0 °F 37.0 °F 30% 30.19 in 10.0 mi North 5.8 mph - N/A   Clear
1:53 PM 71.1 °F 37.0 °F 29% 30.17 in 10.0 mi Variable 5.8 mph - N/A   Clear
2:53 PM 72.0 °F 37.0 °F 28% 30.14 in 10.0 mi North 8.1 mph - N/A   Clear
3:53 PM 73.0 °F 36.0 °F 26% 30.13 in 10.0 mi North 8.1 mph - N/A   Clear
4:53 PM 72.0 °F 37.9 °F 29% 30.13 in 10.0 mi NNE 8.1 mph - N/A   Clear
5:53 PM 70.0 °F 39.0 °F 32% 30.14 in 10.0 mi Calm Calm - N/A   Clear
6:53 PM 60.1 °F 43.0 °F 53% 30.16 in 10.0 mi Calm Calm - N/A   Clear
7:53 PM 54.0 °F 43.0 °F 66% 30.18 in 10.0 mi NNW 4.6 mph - N/A   Clear
8:53 PM 50.0 °F 42.1 °F 74% 30.19 in 10.0 mi Calm Calm - N/A   Clear
10:53 PM 48.0 °F 41.0 °F 77% 30.20 in 10.0 mi Calm Calm - N/A   Clear
11:53 PM 46.0 °F 41.0 °F 83% 30.20 in 10.0 mi Calm Calm - N/A   Clear